Terminal Aerodrome Forecast
Issued by NWS Omaha/Valley, NE

Home | Current Version | Previous Version | Text Only | Print | Product List | Glossary Off
Versions: 1 2 3 4 5 6 7 8 9 10 11 12 13 14 15 16 17 18 19 20 21 22 23

000
FTUS43 KOAX 242320
TAFOFK
TAF
KOFK 242320Z 2500/2524 VRB04KT P6SM BKN250
     FM250300 VRB03KT P6SM FEW250
     FM251800 10006KT P6SM SKC=

USA.gov is the U.S. government's official web portal to all federal, state and local government web resources and services.